EW0195 Weather Reports


Display with metric or nautical units.
time (UTC)temp
F
wind
direction
speed
MPH
gust
MPH
rain 1hr
in
rain 24hr
in
rain mn
in
humidity
%
barometer
mb
20260906133000 69 111 4.0 7.0 0.00 0.00 0.00 82 1015.3
20260906131501 69 75 3.0 7.0 0.00 0.00 0.00 83 1015.1
20260906130003 67 72 5.0 9.0 0.00 0.00 0.00 83 1015.2
20260906124501 67 101 4.0 7.0 0.00 0.00 0.00 84 1015.0
20260906121500 65 74 3.0 6.0 0.00 0.00 0.00 86 1014.9
20260906120004 64 65 4.0 8.0 0.00 0.00 0.00 87 1014.8
20260906114500 63 74 4.0 8.0 0.00 0.00 0.00 88 1014.7
20260906113002 63 68 4.0 8.0 0.00 0.00 0.00 89 1014.4
20260906111500 62 77 3.0 6.0 0.00 0.00 0.00 90 1014.2
20260906110003 61 43 1.0 4.0 0.00 0.00 0.00 91 1014.1
20260906104500 61 39 0.0 0.0 0.00 0.00 0.00 90 1013.9
20260906103000 62 39 0.0 3.0 0.00 0.00 0.00 89 1013.7
20260906101501 62 37 2.0 4.0 0.00 0.00 0.00 89 1013.5
20260906100005 62 48 1.0 4.0 0.00 0.00 0.00 88 1013.4
20260906094501 63 70 2.0 6.0 0.00 0.00 0.00 88 1013.2
20260906093000 62 70 2.0 3.0 0.00 0.00 0.00 88 1013.2
20260906091500 62 60 1.0 5.0 0.00 0.00 0.00 88 1012.9
20260906090005 63 69 1.0 4.0 0.00 0.00 0.00 88 1012.6
20260906084459 63 54 0.0 3.0 0.00 0.00 0.00 87 1012.5
20260906083000 63 46 1.0 3.0 0.00 0.00 0.00 87 1012.4
20260906081500 63 72 2.0 5.0 0.00 0.00 0.00 86 1012.3
20260906080003 64 79 1.0 3.0 0.00 0.00 0.00 86 1012.4
20260906074500 64 75 2.0 6.0 0.00 0.00 0.00 85 1012.4
20260906073001 64 70 3.0 8.0 0.00 0.00 0.00 85 1012.4
20260906071500 64 72 3.0 7.0 0.00 0.00 0.00 84 1012.3
20260906070003 64 74 2.0 5.0 0.00 0.00 0.00 84 1012.4
20260906064459 65 77 3.0 6.0 0.00 0.00 0.00 84 1012.4
20260906063000 65 68 2.0 5.0 0.00 0.00 0.00 83 1012.3
20260906061500 65 52 2.0 6.0 0.00 0.00 0.00 83 1012.5
20260906060004 65 42 2.0 4.0 0.00 0.00 0.00 83 1012.6
20260906054501 65 51 2.0 5.0 0.00 0.00 0.00 83 1012.6
20260906051500 66 49 1.0 4.0 0.00 0.00 0.00 81 1012.9
20260906050004 66 31 2.0 3.0 0.00 0.00 0.00 80 1012.9
20260906044500 66 75 2.0 4.0 0.00 0.00 0.00 80 1012.9
20260906041500 67 54 1.0 4.0 0.00 0.00 0.00 79 1012.9
20260906040004 67 65 1.0 3.0 0.00 0.00 0.00 78 1013.0
20260906034500 67 43 1.0 4.0 0.00 0.00 0.00 78 1012.9
20260906031500 68 59 1.0 3.0 0.00 0.00 0.00 78 1012.8
20260906030004 68 65 2.0 4.0 0.00 0.00 0.00 77 1012.8
20260906024501 68 73 1.0 4.0 0.00 0.00 0.00 77 1012.7
20260906022959 68 72 2.0 4.0 0.00 0.00 0.00 76 1012.6
20260906014500 69 65 2.0 4.0 0.00 0.00 0.00 74 1012.4
20260906013001 69 74 1.0 3.0 0.00 0.00 0.00 76 1012.3
20260906011500 70 57 0.0 3.0 0.00 0.00 0.00 75 1012.1
20260906010004 70 45 0.0 2.0 0.00 0.00 0.00 77 1011.9
20260906004501 69 45 0.0 2.0 0.00 0.00 0.00 80 1011.8
20260906003000 69 80 0.0 0.0 0.00 0.00 0.00 80 1011.7
20260906000003 70 80 0.0 0.0 0.00 0.00 0.00 78 1011.5
20260905234500 71 80 0.0 0.0 0.00 0.00 0.00 77 1011.4
20260905233000 72 80 0.0 0.0 0.00 0.00 0.00 74 1011.2
20260905231500 73 80 0.0 1.0 0.00 0.00 0.00 70 1011.1
20260905224501 74 81 1.0 2.0 0.00 0.00 0.00 68 1011.2
20260905223000 75 101 2.0 4.0 0.00 0.00 0.00 68 1011.0
20260905221501 76 70 2.0 5.0 0.00 0.00 0.00 68 1011.0
20260905220005 75 73 2.0 5.0 0.00 0.00 0.00 68 1010.7
20260905214502 76 68 5.0 9.0 0.00 0.00 0.00 65 1010.8
20260905213001 75 91 4.0 8.0 0.00 0.00 0.00 67 1010.8
20260905210004 77 73 5.0 11.0 0.00 0.00 0.00 64 1010.6
20260905204501 78 9 4.0 10.0 0.00 0.00 0.00 63 1010.4
20260905203001 77 66 5.0 10.0 0.00 0.00 0.00 62 1010.4
20260905201501 76 66 4.0 8.0 0.00 0.00 0.00 65 1010.6
20260905200005 77 58 5.0 10.0 0.00 0.00 0.00 64 1010.6
20260905194501 79 68 4.0 10.0 0.00 0.00 0.00 62 1010.6
20260905193001 80 266 2.0 7.0 0.00 0.00 0.00 63 1010.8
20260905191501 78 25 2.0 6.0 0.00 0.00 0.00 67 1011.0
20260905190004 76 65 3.0 7.0 0.00 0.00 0.00 66 1011.2
20260905184501 76 40 4.0 9.0 0.00 0.00 0.00 66 1011.3
20260905183001 77 68 3.0 6.0 0.00 0.00 0.00 67 1011.3
20260905181502 77 73 2.0 7.0 0.00 0.00 0.00 67 1011.3
20260905180003 77 345 3.0 6.0 0.00 0.00 0.00 69 1011.5
20260905174501 76 71 5.0 9.0 0.00 0.00 0.00 65 1011.6
20260905173000 76 84 4.0 7.0 0.00 0.00 0.00 67 1011.6
20260905171501 77 90 3.0 10.0 0.00 0.00 0.00 69 1011.7
20260905170006 76 39 4.0 10.0 0.00 0.00 0.00 68 1011.9
20260905164500 76 73 3.0 7.0 0.00 0.00 0.00 69 1012.0
20260905163001 76 354 4.0 8.0 0.00 0.00 0.00 70 1012.1
20260905161501 76 74 3.0 10.0 0.00 0.00 0.00 72 1012.2
20260905160006 75 71 2.0 8.0 0.00 0.00 0.00 72 1012.4
20260905154501 75 52 4.0 8.0 0.00 0.00 0.00 72 1012.5
20260905153000 75 79 4.0 8.0 0.00 0.00 0.00 74 1012.4
20260905151500 74 48 5.0 9.0 0.00 0.00 0.00 74 1012.4
20260905150004 74 58 6.0 12.0 0.00 0.00 0.00 74 1012.2
20260905144500 73 63 6.0 12.0 0.00 0.00 0.00 75 1012.0
20260905143001 73 340 4.0 8.0 0.00 0.00 0.00 76 1011.9
20260905141500 72 78 4.0 7.0 0.00 0.00 0.00 78 1012.1
20260905140005 71 86 3.0 7.0 0.00 0.00 0.00 79 1012.2
20260905134500 71 66 3.0 6.0 0.00 0.00 0.00 78 1012.2